Lid_Strength_Index
0 0 0 1 1 0 1 1 0 0 0 1 0 0 1 1 0 0 0 0 1 1 1 1 1 0 1 1 1 1 2 2 4 2 1 0 1 1 0 -0 -1 -1 -0
0 0 0 0 0 1 1 1 0 0 -0 0 0 0 0 0 0 1 1 1 1 1 1 1 1 1 1 0 1 1 1 1 2 3 2 2 1 0 0 0 0 -0 -0
0 1 0 1 1 1 1 1 1 0 0 0 0 0 0 0 0 0 0 0 0 0 0 1 1 1 1 1 1 1 1 1 1 2 3 2 1 1 1 0 0 0 -0
0 1 1 1 1 1 1 1 1 1 1 0 0 0 0 0 0 0 0 0 0 0 1 0 0 1 1 1 1 1 1 1 1 2 2 3 2 1 1 2 2 1 1
1 1 1 0 0 1 1 2 2 1 1 1 1 1 0 0 0 0 0 0 0 0 -0 0 -0 0 3 2 0 -0 0 1 2 2 2 2 2 2 3 2 2 2 1
2 2 1 0 0 1 1 1 3 1 1 1 1 0 1 1 4 4 1 0 0 0 0 0 -0 0 1 2 2 2 1 1 1 2 2 3 2 2 1 2 2 3 4
2 2 2 2 1 1 1 2 2 2 1 1 1 1 1 1 7 5 4 0 0 0 0 0 0 0 0 -0 2 3 3 4 3 1 2 2 2 1 1 2 2 3 3
3 3 3 3 2 1 1 2 2 2 2 2 1 1 1 1 2 6 4 0 0 0 0 0 0 -0 -0 0 -0 0 -0 -0 -0 0 0 1 0 0 0 1 1 2 2
4 4 3 3 3 2 1 1 1 1 2 2 1 1 1 1 5 5 3 0 1 1 0 0 0 0 4 5 0 1 1 0 1 4 4 5 6 7 5 1 2 3 4
4 4 4 4 4 3 1 1 1 1 2 1 1 1 2 1 7 7 4 1 1 1 0 0 5 1 7 7 0 1 2 1 0 0 0 1 2 1 7 1 1 3 4
3 4 3 4 4 3 2 1 1 1 1 2 2 1 1 1 1 9 8 1 1 1 1 1 1 7 7 8 6 1 1 1 1 0 1 1 0 0 0 0 0 1 3
3 4 4 4 5 5 3 3 1 2 2 2 2 2 1 1 4 8 10 7 3 1 1 1 1 7 7 7 6 5 6 6 1 1 1 1 1 1 0 0 0 0 -0
4 4 5 4 4 4 5 4 5 2 3 3 3 3 2 1 1 8 10 9 7 2 1 2 8 8 7 7 8 8 9 1 1 2 2 2 1 1 1 1 0 0 0
6 5 5 5 6 5 5 5 5 4 3 3 3 3 2 2 2 1 2 4 8 4 4 1 3 4 4 4 3 3 0 1 1 1 1 1 0 1 2 1 2 1 2
7 6 6 6 6 5 5 5 5 3 3 2 2 2 3 3 2 3 2 1 1 2 1 1 1 1 1 1 1 1 1 1 1 1 1 2 2 2 2 1 1 2 3
8 7 7 7 7 7 7 6 7 7 8 8 8 7 4 8 8 7 8 7 7 7 2 2 2 2 2 2 2 1 1 2 1 1 1 1 3 3 2 2 2 3 3
10 9 8 8 7 7 7 7 7 6 8 8 8 9 8 9 8 8 9 9 9 7 2 2 2 2 2 1 1 1 2 1 0 1 1 2 2 2 3 3 3 3 3
9 10 9 9 8 8 7 7 6 6 6 5 7 8 8 9 8 8 9 9 3 5 2 2 2 1 1 1 1 1 1 1 1 1 1 2 2 3 3 3 3 3 3
11 11 10 10 10 10 9 8 8 7 6 6 5 6 8 9 9 9 9 3 2 2 2 2 2 1 1 1 1 1 1 1 1 1 2 2 2 2 3 3 3 7 5
11 12 12 11 11 11 11 10 9 8 7 6 6 5 4 5 5 4 3 2 2 2 2 2 2 1 1 1 1 1 1 1 1 2 2 2 2 2 3 3 2 2 2
12 11 12 11 12 12 12 10 10 9 8 8 7 5 8 5 4 3 3 2 2 2 2 1 1 1 1 1 1 1 1 1 2 2 2 2 2 2 2 2 2 2 2
11 11 11 11 10 10 11 11 10 9 8 8 7 7 11 4 4 4 3 2 2 2 2 1 1 1 0 1 1 1 1 1 2 2 2 2 2 2 2 2 2 2 2
8 8 8 8 9 11 10 10 9 8 8 8 7 7 7 5 4 4 3 2 2 1 1 1 1 1 1 0 -0 0 1 1 1 1 2 2 2 2 2 2 2 3 2
6 6 4 4 6 7 8 10 9 9 8 7 7 6 7 6 6 5 4 2 2 1 1 1 0 1 1 0 0 0 -0 0 0 1 1 1 2 4 2 2 2 2 2
5 4 3 3 5 6 6 8 8 8 7 7 7 6 6 6 5 5 3 2 2 2 2 1 1 0 0 0 0 0 4 11 2 5 0 1 1 1 2 2 2 3 3
9 7 6 5 4 3 4 5 5 5 5 5 5 5 5 4 5 4 3 2 2 1 1 1 0 0 0 0 0 5 12 12 6 12 2 1 1 2 2 2 4 5 6